This is the latest recevied weather packets stored in our database for station/object OK2ILA-6. If no packets are shown the sender has not sent any weather packets the latest 10 day(s).
| Time | Temp. | Humidity | Pressure | Rain* | Wind** | Luminosity | Snow |
|---|---|---|---|---|---|---|---|
| 1787620803 | 11.11° C | 86% | 1018.8 hPa | - | - | - | - |
| 1787620203 | 11.11° C | 86% | 1019 hPa | - | - | - | - |
| 1787619603 | 11.11° C | 86% | 1019.1 hPa | - | - | - | - |
| 1787619002 | 11.11° C | 86% | 1019.4 hPa | - | - | - | - |
| 1787618403 | 11.11° C | 86% | 1019.2 hPa | - | - | - | - |
| 1787617803 | 11.11° C | 86% | 1019.2 hPa | - | - | - | - |
| 1787617203 | 11.11° C | 86% | 1019.6 hPa | - | - | - | - |
| 1787616603 | 10.56° C | 86% | 1019.4 hPa | - | - | - | - |
| 1787616003 | 11.11° C | 84% | 1019.6 hPa | - | - | - | - |
| 1787615403 | 11.11° C | 83% | 1019.5 hPa | - | - | - | - |
| 1787614803 | 11.11° C | 84% | 1019.7 hPa | - | - | - | - |
| 1787614203 | 11.11° C | 84% | 1020 hPa | - | - | - | - |
| 1787613603 | 11.11° C | 84% | 1020.2 hPa | - | - | - | - |
| 1787613002 | 11.11° C | 83% | 1020.5 hPa | - | - | - | - |
| 1787612403 | 11.67° C | 83% | 1020.6 hPa | - | - | - | - |
| 1787611803 | 12.22° C | 82% | 1020.7 hPa | - | - | - | - |
| 1787611203 | 12.22° C | 82% | 1020.8 hPa | - | - | - | - |
| 1787610602 | 12.22° C | 82% | 1020.8 hPa | - | - | - | - |
| 1787610002 | 12.22° C | 80% | 1020.8 hPa | - | - | - | - |
| 1787609403 | 12.22° C | 80% | 1020.9 hPa | - | - | - | - |
| 1787608803 | 12.22° C | 80% | 1021 hPa | - | - | - | - |
| 1787608203 | 12.78° C | 80% | 1020.9 hPa | - | - | - | - |
| 1787607602 | 12.78° C | 80% | 1021 hPa | - | - | - | - |
| 1787607002 | 12.78° C | 80% | 1021 hPa | - | - | - | - |
| 1787606403 | 13.33° C | 78% | 1020.7 hPa | - | - | - | - |
* Rain since midnight (hover to see other rain measurements)
** Current wind speed in m/s (hover to see current wind gust speed)